Tracking 19219 objects as of 20-Jul-2018
HD Live streaming from Space Station
objects crossing your sky now

FENGYUN 1C DEB

Track FENGYUN 1C DEB now!
10-day predictions


NORAD ID: 38502
Int'l Code: 1999-025ESM
Perigee: 835.5 km
Apogee: 898.8 km
Inclination: 99.1 °
Period: 102.1 minutes
Semi major axis: 7238 km
RCS: 0.008 m2 (small)
Launch date: May 10, 1999
Source: People's Republic of China (PRC)
Launch site: Taiyaun Space Center, China (TSC)

Note: This is SATELLITE DEBRIS
aabbcc
Your satellite tracking list
Your tracking list is empty




NASA's NSSDC Master Catalog

Two Line Element Set (TLE):
1 38502U 99025ESM 18199.51233021  .00000314  00000-0  20307-3 0  9991
2 38502  99.1475 310.9435 0043769  57.1719   4.9790 14.09810174563591
Source of the keplerian elements: AFSPC